HELSINKI-MALMI current weather conditions

sailwx.info

Wind from 320 at 2 knots

Air temperature 4.0° C
Visibility: greater than 5.4 NM
Dewpoint 2.0° C
Present weather: Light precipitation.

Last reported at 2014-Oct-31 19:20 UTC.
Time now 2014-Nov-01 02:03 UTC

Location: N 60°15' E 025°03'.
View on Google Maps.

See reports from other nearby stations

  
Tides and Currents Weather Stations Pressure Air Temp Water Temp Dewpoint Dewpoint Depression Visibility Wind Speed Wind Dir Waves Ship Positions
date/time (UTC)wind fromknots sea level pressurealtimeterstation pressurevisibilityair tempwater tempwave heightnotes
2014-Oct-31 19:20 320 2 5.4 4.0 Light precipitation.
2014-Oct-31 18:50 300 1 5.4 4.0
2014-Oct-31 18:20 270 3 5.4 4.0 Light rain showers.
2014-Oct-31 17:50 330 2 5.4 4.0
2014-Oct-31 17:20 310 2 5.4 4.0
2014-Oct-31 16:50 320 3 5.4 5.0 Light rain showers.
2014-Oct-31 16:20 330 2 5.4 5.0
2014-Oct-31 15:50 290 4 5.4 5.0 Light rain showers.
2014-Oct-31 15:20 270 4 5.4 6.0
2014-Oct-31 14:50 290 5 5.4 6.0
2014-Oct-31 14:20 290 6 5.4 6.0
2014-Oct-31 13:50 290 5 5.4 6.0
2014-Oct-31 13:20 310 6 5.4 6.0
2014-Oct-31 12:50 290 7 5.4 6.0
2014-Oct-31 12:20 290 6 5.4 6.0
2014-Oct-31 11:50 290 9 5.4 6.0
2014-Oct-31 11:20 280 12 5.4 6.0
2014-Oct-31 10:50 280 12 5.4 6.0
2014-Oct-31 10:20 290 10 5.4 6.0
2014-Oct-31 09:50 290 8 5.4 6.0
2014-Oct-31 09:20 280 5 5.4 5.0
2014-Oct-31 08:50 290 5 5.4 5.0
2014-Oct-31 08:20 270 5 5.4 4.0
2014-Oct-31 07:50 260 3 5.4 3.0
2014-Oct-31 07:20 270 2 5.4 2.0
2014-Oct-31 06:50 230 2 5.4 1.0
2014-Oct-31 06:20 230 3 5.4-1.0
2014-Oct-31 05:56 240 2 5.4-2.0 Shallow fog.
2014-Oct-31 05:50 230 2 1.7-2.0 Light precipitation showers. Mist.
2014-Oct-31 05:20 290 1 2.3-1.0 Mist.
2014-Oct-31 04:50 270 2 1.0
2014-Oct-31 04:20 270 2 0.4-1.0 Fog.
2014-Oct-31 03:50 320 3 1.0
2014-Oct-31 03:20 270 5 2.0
2014-Oct-31 02:50 260 5 2.0
2014-Oct-31 02:20 270 4 2.0
2014-Oct-31 01:50 260 5 2.0
2014-Oct-31 01:20 260 4 2.0
2014-Oct-31 00:50 260 5 2.0
2014-Oct-31 00:20 240 3 2.0
2014-Oct-30 23:50 250 5 2.0
2014-Oct-30 23:20 250 5 2.0
2014-Oct-30 22:50 240 4 2.0
2014-Oct-30 22:20 260 4 2.0
2014-Oct-30 21:50 250 4 2.0
2014-Oct-30 21:20 250 4 3.0
2014-Oct-30 20:50 260 3 3.0
2014-Oct-30 20:20 260 4 3.0
2014-Oct-30 19:50 260 4 4.0
2014-Oct-30 19:20 260 5 4.0
2014-Oct-30 18:50 280 4 4.0
2014-Oct-30 18:20 260 5 5.0
2014-Oct-30 17:50 250 5 5.0
2014-Oct-30 17:20 250 5 5.0
2014-Oct-30 16:50 240 3 5.0
2014-Oct-30 16:20 220 3 4.0
2014-Oct-30 15:50 220 1 4.0
2014-Oct-30 15:20 210 2 6.0
2014-Oct-30 14:50 220 4 6.0
2014-Oct-30 14:20 250 5 7.0
2014-Oct-30 13:50 280 4 5.4 7.0
2014-Oct-30 13:20 250 7 5.4 8.0
2014-Oct-30 12:50 240 6 5.4 8.0
2014-Oct-30 12:20 260 6 5.4 8.0
2014-Oct-30 11:50 300 5 5.4 8.0
2014-Oct-30 11:20 270 7 5.4 8.0
2014-Oct-30 10:50 270 5 5.4 7.0
2014-Oct-30 10:20 260 6 5.4 7.0
2014-Oct-30 09:50 250 8 5.4 8.0
2014-Oct-30 09:20 270 6 5.4 7.0
2014-Oct-30 08:50 260 6 5.4 7.0
2014-Oct-30 08:20 270 4 5.4 7.0
2014-Oct-30 07:50 250 5 6.0
2014-Oct-30 07:20 220 3 4.0
2014-Oct-30 06:50 5.4 1.0 Patches of fog.
2014-Oct-30 06:20 5.4 1.0 Patches of fog.
2014-Oct-30 05:50 3.8 3.0
2014-Oct-30 05:20 220 4 4.0
2014-Oct-30 04:50 210 3 4.0
2014-Oct-30 04:20 210 2 4.0
2014-Oct-30 03:50 210 3 4.0
2014-Oct-30 03:20 220 3 4.0
2014-Oct-30 02:50 200 2 3.0
2014-Oct-30 02:20 4.0